Tracking 21496 objects as of 30-Sep-2020
HD Live streaming from Space Station
objects crossing your sky now

STARLINK-1617

Track STARLINK-1617 now!
10-day predictions
STARLINK-1617 is classified as:


NORAD ID: 46350
Int'l Code: 2020-062AB
Perigee: 400.7 km
Apogee: 402.5 km
Inclination: 53.0 °
Period: 92.4 minutes
Semi major axis: 6772 km
RCS: Unknown
Launch date: September 3, 2020
Source: United States (US)
Launch site: AIR FORCE EASTERN TEST RANGE (AFETR)
aabbcc
Your satellite tracking list
Your tracking list is empty




NASA's NSSDC Master Catalog

Two Line Element Set (TLE):
1 46350U 20062AB  20273.83334491 -.01094083 +00000-0 -16020-1 0  9994
2 46350 053.0000 300.5229 0001322 063.6794 057.2388 15.57642204001811
Source of the keplerian elements: AFSPC